Wind_Speed
12 12 12 12 12 11 10 10 10 10 9 8 7 5 4 4 6 7 8 10 9 11 13 12 12 12 12 16 21 24 25 21 6 10 12 24 5 12 14 24 24 18 25 14 15
11 12 12 13 13 13 13 13 12 12 11 10 8 8 7 5 5 6 9 10 11 12 14 14 13 12 13 16 19 21 19 17 10 13 18 13 13 9 4 11 18 25 19 15 11
10 11 12 12 14 15 16 15 14 13 13 12 10 10 9 7 5 6 7 9 11 12 13 14 14 13 13 14 16 17 22 13 12 24 31 19 7 9 5 2 13 10 18 9 9
11 11 11 11 13 14 16 17 16 15 15 14 13 12 11 10 7 7 8 8 10 12 13 12 13 14 15 14 15 19 21 18 23 31 39 27 19 11 7 20 28 19 20 11 11
12 12 12 12 11 12 14 16 17 16 16 15 15 14 13 12 9 9 9 9 10 11 13 13 13 13 14 15 16 17 21 25 24 16 11 24 20 11 9 27 14 18 16 15 11
12 13 14 13 13 13 13 14 15 16 16 16 16 15 13 12 12 11 11 12 11 11 12 13 14 15 16 16 17 17 21 24 19 19 16 18 15 16 18 18 12 17 15 17 12
12 13 13 13 15 15 16 15 15 15 16 16 16 15 15 13 14 14 13 13 13 14 14 15 16 17 18 18 17 18 17 20 19 18 17 18 16 19 17 6 13 16 15 17 20
11 11 12 12 14 15 16 17 18 18 18 18 17 17 17 17 16 15 16 15 16 16 17 18 18 18 18 19 18 16 17 17 14 16 15 15 10 13 16 12 14 14 15 15 19
8 9 10 11 11 13 14 16 18 20 20 21 21 20 19 18 17 18 18 18 19 20 20 20 21 20 20 19 18 17 14 12 6 23 11 11 11 17 11 10 17 18 20 22 22
7 8 8 9 9 9 10 12 15 18 19 21 22 21 21 20 18 20 20 20 21 22 23 23 23 23 22 21 18 9 12 10 10 23 16 16 12 23 19 20 20 25 28 26 27
7 7 8 9 9 10 10 10 12 12 16 20 19 20 18 21 20 21 21 20 21 22 23 25 26 23 20 19 15 18 19 18 16 18 28 18 16 22 27 29 29 27 31 30 27
7 7 7 8 9 11 12 13 13 12 13 14 14 16 16 18 19 18 20 19 19 19 23 27 25 22 22 22 20 26 24 22 25 18 26 26 25 22 31 34 34 29 30 29 29
10 10 10 10 10 10 12 14 16 17 16 16 14 13 14 16 18 19 19 20 19 20 20 20 16 20 22 24 24 28 24 25 22 19 26 33 35 27 25 39 35 31 34 29 28
12 12 12 13 13 13 12 13 15 17 20 22 20 17 17 16 15 17 17 21 23 21 22 22 19 22 24 26 25 27 25 27 29 25 25 31 35 26 24 41 37 30 28 30 31
15 15 15 15 16 16 15 16 16 16 20 26 17 19 22 20 21 21 22 22 21 23 27 23 26 28 31 27 31 30 30 30 26 34 36 34 34 28 20 31 44 39 30 32 33
16 16 17 17 18 19 19 19 19 18 15 24 22 22 23 24 23 24 24 25 25 29 30 30 29 28 30 33 33 31 34 36 34 34 40 34 33 32 27 33 37 42 38 33 35
17 18 18 19 20 21 21 21 20 17 21 19 30 21 23 26 26 28 31 30 28 30 31 31 32 32 36 36 34 34 35 37 35 36 40 30 30 34 27 30 43 44 46 35 33
18 19 20 20 20 20 21 22 22 20 19 33 28 26 26 26 28 29 34 37 36 34 33 34 35 33 33 35 33 32 35 36 32 28 27 20 26 29 27 35 35 44 46 42 38
19 20 19 19 20 20 20 19 22 25 25 25 26 28 27 27 29 27 35 35 34 35 39 37 43 28 20 33 39 35 38 33 34 36 37 35 27 23 32 40 43 46 44 45 47
20 18 20 20 20 21 21 21 25 26 23 27 28 29 29 27 23 22 28 31 30 29 32 40 44 38 38 24 35 38 32 31 33 38 38 40 39 34 33 39 45 48 44 43 47
21 21 23 23 24 25 25 26 25 32 29 29 32 33 34 35 33 35 37 32 25 36 34 36 39 45 34 43 28 31 34 40 41 38 39 41 36 30 40 37 48 52 56 48 53
26 28 25 25 24 23 23 25 26 27 29 27 30 32 36 38 38 37 41 43 39 48 49 47 49 53 51 41 43 38 42 37 41 47 46 47 38 28 32 38 46 48 50 50 60
24 22 23 25 26 29 28 29 34 34 35 36 36 36 39 41 43 42 42 41 41 50 53 53 57 58 53 51 53 53 53 48 47 41 48 48 53 43 46 56 56 61 50 56 32
23 26 26 27 29 32 34 35 36 39 41 42 42 43 45 47 48 48 48 50 53 57 59 57 58 58 56 50 40 37 38 45 52 58 55 49 49 43 38 41 44 48 47 52 64
26 28 32 36 36 37 40 41 43 48 52 54 55 57 61 60 58 59 59 57 55 61 64 68 65 64 60 56 54 51 45 49 58 54 61 58 54 46 42 51 60 59 61 55 54
31 35 39 40 43 48 49 53 55 59 61 65 68 71 73 74 75 73 74 73 73 71 70 73 69 69 69 63 63 61 57 56 57 56 44 32 37 35 37 48 38 56 48 31 28
38 42 46 48 52 54 57 61 66 71 76 81 84 84 84 84 83 83 86 84 75 76 75 75 74 73 66 64 68 71 62 58 57 62 43 47 41 32 37 49 38 44 47 40 42
Wind_Direction
243 244 242 239 237 234 235 233 230 228 227 224 224 224 220 208 206 204 199 200 197 199 206 213 204 199 198 200 199 189 156 118 132 245 258 270 189 230 235 284 315 6 332 14 20
247 248 246 241 237 235 234 234 232 230 229 229 228 232 232 224 211 205 207 205 201 203 207 214 216 206 198 198 200 196 172 111 273 190 231 247 184 223 169 320 331 321 325 12 346
254 252 251 247 243 239 238 239 239 237 236 234 235 238 239 236 230 221 215 211 211 209 210 212 219 217 208 207 201 200 169 127 267 211 214 220 222 256 168 15 240 194 294 321 311
260 260 258 253 245 243 241 242 245 244 241 240 240 241 243 241 222 231 223 219 217 213 213 213 215 218 218 211 209 206 191 178 255 226 229 242 254 227 201 228 223 244 287 287 301
264 264 265 262 258 251 247 245 248 248 245 243 242 243 242 245 239 240 236 228 222 216 216 215 213 216 216 219 217 220 215 216 241 245 232 239 242 224 260 249 235 267 274 292 281
266 267 264 264 263 259 256 253 251 250 249 247 243 243 244 249 248 249 245 239 230 224 218 217 214 213 211 214 220 231 230 233 251 246 244 250 237 255 250 245 247 258 282 285 263
266 267 267 264 262 261 257 255 255 254 251 249 247 246 246 243 253 253 246 240 235 231 226 223 225 221 217 222 222 226 238 238 247 252 254 261 244 245 242 189 248 254 257 266 283
272 273 273 272 266 260 257 257 253 254 254 253 253 253 254 255 255 252 249 244 239 235 233 231 230 230 231 229 233 236 240 247 251 251 251 256 249 240 247 248 259 261 263 264 259
279 280 278 276 272 268 261 256 255 253 253 253 255 257 259 258 254 252 250 249 246 242 238 236 236 235 234 235 231 233 245 248 233 259 260 247 238 234 230 264 273 277 272 273 279
287 282 281 276 276 278 276 269 261 258 256 255 255 256 254 257 257 253 251 249 247 245 241 237 237 237 235 236 237 244 289 248 243 265 254 260 235 241 257 270 265 272 276 276 279
306 296 286 280 276 273 276 278 279 272 263 258 257 254 246 247 246 249 251 251 250 246 240 237 235 237 238 234 218 182 239 245 239 235 265 247 252 263 273 273 273 275 276 278 275
320 321 312 298 287 278 273 272 274 274 277 271 266 260 256 246 247 248 250 251 251 244 236 238 239 238 235 233 219 199 224 199 214 232 253 262 264 261 261 279 282 280 277 273 270
311 307 306 304 300 289 282 273 273 275 275 275 274 268 262 252 252 249 250 248 244 242 244 242 227 224 232 224 232 224 227 231 242 244 257 263 267 267 251 268 279 280 278 271 269
308 304 299 295 291 293 291 287 280 278 277 270 266 269 273 265 264 257 247 249 246 242 243 239 230 231 234 235 239 237 241 247 252 245 247 266 276 269 258 256 281 274 278 275 269
307 301 297 294 291 289 287 283 282 282 277 280 272 262 264 267 260 258 256 248 251 249 245 243 241 241 248 245 247 249 250 254 255 257 251 245 255 268 253 271 273 287 284 270 270
305 301 296 293 291 290 288 281 275 274 273 276 278 269 263 260 258 262 257 255 250 250 248 246 245 242 252 248 251 253 256 256 253 254 261 259 258 261 254 265 278 278 277 276 274
305 302 297 293 289 287 284 281 276 268 259 256 271 279 270 263 256 257 261 256 253 255 255 258 251 253 253 257 254 256 252 255 256 254 265 264 268 283 272 240 262 269 273 279 281
305 302 298 293 290 288 283 278 272 263 238 265 278 275 269 266 267 259 260 260 258 255 255 255 251 254 260 262 265 260 257 255 253 253 276 287 281 282 267 245 239 252 286 291 283
303 300 296 292 291 286 286 287 279 264 276 276 270 273 268 265 265 258 270 266 265 264 259 258 256 238 248 278 269 254 246 257 245 235 234 236 226 277 258 261 265 266 269 275 275
304 301 298 296 292 289 287 283 282 280 282 275 276 273 270 262 243 249 269 261 267 267 259 268 264 248 235 233 249 262 253 237 251 258 262 258 243 233 279 262 254 258 264 267 269
307 303 300 299 296 295 293 287 286 285 274 279 278 278 275 271 262 257 250 242 234 240 233 244 252 256 251 222 237 240 247 255 243 232 252 258 252 252 242 260 259 266 270 273 265
312 315 313 311 311 304 304 304 296 293 291 287 281 278 277 273 271 265 262 260 253 245 235 233 236 239 244 238 237 243 248 241 255 263 249 242 250 257 259 255 267 263 270 283 283
313 317 324 322 315 309 304 301 297 294 291 288 287 287 282 278 273 266 261 258 255 255 255 253 246 255 258 256 250 240 236 263 254 257 247 243 257 245 253 260 262 262 270 275 232
313 315 314 312 314 307 304 300 295 292 287 285 288 287 281 278 276 274 267 261 257 256 255 254 253 252 257 258 257 253 254 244 258 253 255 260 264 254 253 268 259 263 264 263 270
308 308 307 307 307 306 302 299 295 292 290 286 288 288 286 283 280 277 272 266 262 263 264 262 260 258 257 255 251 243 231 242 237 233 242 251 243 240 244 253 257 262 258 273 258
303 304 304 303 305 306 303 300 297 297 296 294 290 289 289 286 281 277 277 275 268 265 266 266 266 262 261 260 255 251 246 243 242 249 251 268 260 253 255 258 268 256 262 295 264
303 302 304 303 304 306 306 304 305 305 304 301 296 290 286 283 282 280 277 274 268 264 261 259 261 260 261 259 253 250 251 250 249 243 241 253 255 250 236 255 262 255 272 276 274
Height
5873 5874 5875 5876 5876 5877 5878 5879 5880 5881 5881 5882 5883 5884 5884 5885 5886 5887 5889 5890 5890 5892 5893 5894 5896 5898 5900 5902 5903 5907 5916 5916 5926 5931 5928 5923 5926 5924 5922 5915 5907 5887 5903 5908 5914
5872 5872 5873 5874 5875 5876 5877 5878 5879 5880 5880 5881 5882 5883 5883 5884 5885 5886 5888 5889 5889 5891 5892 5894 5895 5897 5899 5901 5903 5905 5912 5913 5922 5924 5924 5921 5920 5921 5924 5923 5910 5904 5906 5912 5917
5870 5871 5871 5872 5872 5874 5875 5876 5877 5878 5879 5879 5880 5881 5882 5883 5885 5886 5886 5888 5889 5890 5891 5893 5894 5896 5898 5900 5901 5905 5910 5909 5916 5917 5914 5915 5917 5920 5922 5927 5919 5917 5914 5916 5916
5869 5869 5870 5870 5870 5871 5872 5873 5875 5876 5877 5877 5878 5879 5880 5881 5886 5885 5885 5887 5888 5889 5890 5892 5893 5894 5896 5898 5900 5902 5905 5907 5909 5909 5911 5914 5915 5917 5920 5917 5917 5918 5915 5915 5915
5868 5868 5868 5868 5868 5869 5870 5871 5872 5873 5874 5875 5876 5877 5878 5880 5883 5883 5884 5885 5886 5887 5889 5890 5891 5892 5894 5896 5898 5900 5902 5903 5904 5906 5908 5909 5911 5913 5916 5910 5916 5916 5913 5913 5913
5866 5866 5865 5866 5866 5867 5867 5868 5869 5870 5871 5872 5873 5875 5876 5879 5880 5881 5883 5884 5885 5886 5887 5888 5889 5890 5891 5892 5895 5898 5899 5901 5902 5904 5904 5905 5906 5907 5910 5908 5911 5911 5911 5909 5910
5863 5863 5863 5863 5864 5864 5865 5866 5867 5868 5869 5870 5871 5872 5874 5877 5877 5879 5880 5881 5882 5883 5884 5885 5886 5888 5889 5890 5892 5894 5897 5897 5899 5900 5901 5902 5903 5903 5904 5906 5907 5906 5906 5908 5906
5861 5861 5861 5861 5861 5862 5863 5863 5864 5865 5866 5867 5868 5870 5872 5873 5874 5876 5877 5878 5879 5880 5881 5882 5883 5885 5886 5888 5889 5892 5893 5894 5897 5897 5899 5900 5901 5903 5900 5902 5902 5902 5903 5903 5903
5859 5859 5859 5859 5859 5860 5860 5860 5861 5862 5863 5864 5865 5867 5868 5870 5871 5872 5873 5874 5875 5876 5877 5878 5880 5881 5883 5885 5887 5889 5891 5892 5894 5895 5896 5897 5898 5898 5898 5899 5899 5899 5899 5897 5900
5858 5857 5857 5858 5858 5858 5857 5857 5857 5858 5859 5860 5861 5863 5865 5866 5867 5867 5868 5870 5871 5872 5873 5875 5876 5877 5879 5881 5885 5888 5890 5892 5896 5893 5893 5894 5896 5892 5894 5896 5897 5895 5893 5894 5895
5856 5856 5856 5856 5856 5856 5856 5856 5856 5856 5855 5856 5857 5858 5859 5860 5862 5862 5863 5865 5866 5868 5869 5870 5871 5874 5877 5879 5883 5886 5890 5894 5896 5896 5889 5891 5891 5890 5889 5890 5890 5890 5889 5887 5891
5855 5855 5854 5854 5853 5853 5853 5853 5853 5854 5853 5853 5854 5854 5855 5856 5857 5859 5860 5861 5862 5863 5864 5865 5868 5872 5873 5875 5879 5879 5882 5885 5888 5890 5886 5885 5886 5888 5884 5882 5883 5883 5883 5882 5883
5854 5853 5853 5852 5852 5851 5851 5850 5850 5850 5851 5851 5851 5852 5852 5853 5853 5855 5856 5856 5858 5859 5860 5862 5867 5867 5869 5870 5873 5874 5877 5879 5881 5884 5882 5880 5878 5882 5882 5874 5877 5877 5874 5876 5877
5852 5851 5851 5850 5850 5849 5848 5847 5847 5846 5846 5847 5847 5848 5849 5850 5851 5851 5852 5853 5853 5856 5857 5858 5863 5862 5864 5866 5868 5869 5873 5873 5874 5875 5877 5874 5870 5873 5876 5868 5867 5870 5869 5869 5869
5849 5848 5847 5847 5846 5845 5845 5844 5843 5843 5843 5839 5844 5844 5844 5846 5846 5847 5847 5847 5850 5851 5852 5856 5856 5858 5858 5862 5862 5864 5865 5865 5867 5865 5866 5867 5866 5867 5870 5864 5858 5859 5864 5862 5861
5845 5844 5843 5843 5842 5841 5840 5840 5840 5841 5839 5834 5837 5837 5839 5840 5841 5840 5841 5843 5844 5843 5844 5847 5850 5851 5853 5854 5855 5858 5857 5856 5857 5857 5853 5858 5860 5859 5862 5858 5854 5850 5853 5855 5854
5841 5840 5839 5838 5837 5836 5835 5835 5836 5836 5834 5835 5829 5832 5832 5833 5835 5834 5834 5835 5837 5837 5838 5841 5842 5843 5844 5846 5848 5848 5849 5848 5848 5847 5847 5852 5851 5851 5853 5855 5844 5838 5843 5849 5847
5838 5836 5834 5833 5831 5830 5830 5830 5830 5830 5828 5823 5826 5826 5826 5827 5827 5828 5827 5827 5829 5830 5830 5830 5832 5835 5837 5837 5840 5839 5839 5839 5840 5842 5844 5848 5844 5844 5846 5844 5842 5830 5832 5838 5839
5833 5831 5830 5828 5826 5825 5825 5825 5822 5821 5823 5820 5820 5819 5820 5820 5820 5820 5818 5819 5821 5821 5821 5822 5820 5828 5833 5829 5827 5833 5827 5834 5832 5833 5833 5837 5841 5835 5833 5833 5832 5831 5831 5831 5827
5827 5826 5824 5822 5821 5820 5820 5818 5815 5815 5815 5813 5812 5812 5811 5812 5812 5815 5813 5815 5814 5815 5816 5811 5807 5816 5819 5823 5818 5815 5824 5824 5822 5822 5822 5825 5828 5831 5828 5824 5819 5815 5820 5822 5818
5822 5821 5818 5817 5816 5815 5812 5811 5811 5805 5807 5806 5804 5802 5802 5801 5802 5801 5801 5803 5807 5801 5800 5801 5802 5802 5808 5808 5812 5812 5807 5812 5815 5814 5813 5812 5816 5820 5820 5813 5810 5804 5803 5810 5805
5816 5814 5812 5810 5810 5807 5805 5803 5802 5799 5797 5797 5794 5793 5791 5789 5789 5791 5790 5791 5793 5785 5786 5789 5783 5780 5788 5797 5803 5803 5796 5802 5796 5800 5805 5803 5804 5809 5809 5802 5797 5804 5800 5798 5796
5812 5810 5808 5805 5804 5800 5799 5797 5793 5791 5788 5786 5785 5783 5780 5778 5775 5777 5778 5779 5777 5771 5769 5774 5773 5771 5776 5781 5784 5785 5790 5787 5793 5784 5786 5788 5790 5803 5797 5790 5790 5791 5793 5786 5756
5807 5802 5801 5800 5797 5793 5790 5787 5784 5779 5776 5775 5773 5768 5764 5763 5761 5760 5762 5762 5756 5752 5750 5753 5755 5757 5758 5766 5773 5774 5777 5783 5780 5777 5774 5773 5782 5789 5787 5781 5778 5773 5781 5776 5771
5800 5798 5794 5791 5788 5785 5781 5777 5772 5766 5762 5758 5755 5751 5745 5745 5743 5740 5740 5740 5741 5733 5734 5731 5737 5738 5744 5749 5752 5755 5758 5757 5760 5752 5754 5760 5765 5772 5776 5770 5769 5769 5770 5767 5767
5793 5789 5785 5782 5777 5771 5767 5759 5755 5749 5744 5739 5733 5728 5722 5718 5714 5713 5711 5715 5716 5716 5714 5708 5717 5715 5723 5734 5733 5734 5743 5747 5749 5747 5751 5753 5756 5765 5762 5753 5755 5757 5754 5752 5757
5784 5779 5773 5767 5759 5755 5749 5742 5735 5727 5719 5710 5704 5699 5693 5687 5681 5680 5678 5683 5688 5689 5691 5688 5690 5689 5706 5709 5707 5707 5726 5735 5737 5738 5741 5742 5745 5751 5752 5739 5742 5744 5743 5748 5749